Preview of NWS' New Version of Forecast
This preview is not operational and should not be used for support decisions.

Regional Weather Roundup (RWR)

Issued by National Weather Service (NWS)

                            
000
ASUS46 KPQR 210610
RWROR 

OREGON REGIONAL WEATHER ROUNDUP
NATIONAL WEATHER SERVICE PORTLAND OR
1100 PM PDT SAT APR 20 2019

NOTE: "FAIR" INDICATES FEW OR NO CLOUDS BELOW 12,000 FEET WITH
NO SIGNIFICANT WEATHER AND/OR OBSTRUCTIONS TO VISIBILITY.

ORZ001>013-210700-
NORTHWEST OREGON

  
CITY           SKY/WX    TMP DP  RH WIND       PRES   REMARKS
ASTORIA        CLOUDY    50  43  77 W5        30.20R                  
6HR MIN TEMP:  50; 6HR MAX TEMP:  57;                                

TILLAMOOK      CLOUDY    50  43  76 CALM      30.23R                  
NEWPORT        CLOUDY    50  43  76 NW8       30.25R                  
PORTLAND       CLEAR     52  44  74 NW8       30.17R                  
6HR MIN TEMP:  52; 6HR MAX TEMP:  66;                                

VANCOUVER WA   CLEAR     52  44  74 CALM      30.16R                  
6HR MIN TEMP:  52; 6HR MAX TEMP:  65;                                

SCAPPOOSE      CLEAR     52  43  71 N6        30.17R                  
6HR MIN TEMP:  52; 6HR MAX TEMP:  67;                                

HILLSBORO      CLEAR     49  43  80 NW6       30.16R                  
6HR MIN TEMP:  49; 6HR MAX TEMP:  65;                                

AURORA         CLEAR     49  44  83 VRB3      30.18R                  
6HR MIN TEMP:  49; 6HR MAX TEMP:  62;                                

MCMINNVILLE    CLEAR     47  43  86 SW6       30.17R                  
6HR MIN TEMP:  46; 6HR MAX TEMP:  62;                                

SALEM          CLOUDY    49  42  77 W7        30.18R                  
6HR MIN TEMP:  49; 6HR MAX TEMP:  62;                                

CORVALLIS      PTCLDY    47  42  83 NW9       30.20R                  
EUGENE         PTCLDY    46  41  82 SW7       30.20R                  
6HR MIN TEMP:  46; 6HR MAX TEMP:  60; 6HR PCP: TRACE;                

$$

ORZ021-028-210700-
SOUTHWEST OREGON

  
CITY           SKY/WX    TMP DP  RH WIND       PRES   REMARKS
NORTH BEND     CLOUDY    50  43  77 N7        30.26R                  
6HR MIN TEMP:  50; 6HR MAX TEMP:  53; 6HR PCP: TRACE;                

BROOKINGS      CLEAR     50  40  68 VRB6      30.16R                  
ROSEBURG       CLOUDY    51  41  68 N7        30.20R                  
6HR MIN TEMP:  51; 6HR MAX TEMP:  57;                                

SEXTON SUMMIT  FOG       36  36 100 N9        30.12R VSB 1/4          
6HR MIN TEMP:  36; 6HR MAX TEMP:  43; 6HR PCP: TRACE;                

GRANTS PASS    FAIR      48  39  71 N6        30.19R                  
MEDFORD        CLOUDY    50  40  68 NW6       30.14R                  
6HR MIN TEMP:  50; 6HR MAX TEMP:  59;                                

$$

ORZ014>016-041-210700-
COLUMBIA GORGE

  
CITY           SKY/WX    TMP DP  RH WIND       PRES   REMARKS
TROUTDALE      CLEAR     53  44  71 W5        30.16R                  
6HR MIN TEMP:  53; 6HR MAX TEMP:  65;                                

HOOD RIVER     CLEAR     52  39  62 MISG      30.10R                  
THE DALLES     CLEAR     57  38  48 W16G25    30.05R                  
6HR MIN TEMP:  57; 6HR MAX TEMP:  66;                                

$$

ORZ029>031-041-044-049-050-061>064-502-503-505>511-210700-
EASTERN OREGON

  
CITY           SKY/WX    TMP DP  RH WIND       PRES   REMARKS
MADRAS         CLEAR     41  34  75 W7        30.10R                  
REDMOND        CLEAR     44  35  70 NW6       30.09R                  
6HR MIN TEMP:  43; 6HR MAX TEMP:  53; 6HR PCP: TRACE;                

BEND           CLEAR     41  34  75 W5        30.09R                  
PRINEVILLE     MOCLDY    41  34  75 W6        30.09R                  
KLAMATH FALLS  CLEAR     39  34  82 NW6       30.06R                  
6HR MIN TEMP:  38; 6HR MAX TEMP:  54;                                

LAKEVIEW       LGT RAIN  42  38  85 NW10      30.03R                  
HERMISTON      CLEAR     55  44  66 SW10      29.98R                  
6HR MIN TEMP:  53; 6HR MAX TEMP:  67;                                

PENDLETON      CLEAR     51  43  74 SW5       29.99R                  
6HR MIN TEMP:  49; 6HR MAX TEMP:  58;                                

JOHN DAY       MOCLDY    45  40  84 CALM      30.02R                  
MEACHAM        PTCLDY    37  34  89 CALM      30.01R                  
6HR MIN TEMP:  37; 6HR MAX TEMP:  47;                                

LA GRANDE      PTCLDY    47  41  80 NW12      30.00R                  
6HR MIN TEMP:  46; 6HR MAX TEMP:  51; 6HR PCP:  0.01;                

BAKER CITY     MOCLDY    45  37  73 NW14      29.97R                  
6HR MIN TEMP:  45; 6HR MAX TEMP:  51;                                

BURNS          CLEAR     40  34  79 W6        30.00R                  
6HR MIN TEMP:  39; 6HR MAX TEMP:  50;                                

ROME             N/A     47  42  83 NW5       29.94R                  
6HR MIN TEMP:  46; 6HR MAX TEMP:  57; 6HR PCP:  0.05;                

ONTARIO        CLOUDY    54  42  64 NW21G28   29.90R                  
6HR MIN TEMP:  54; 6HR MAX TEMP:  58; 6HR PCP: TRACE;                

$$